Location: Aranbee
(34.0885°N, 118.2342°W)
Time: 22:49:39
(UTC+00:00)

Explorer 11/Cluster Stage 4 - Visible Passes

Search period start: 25 November 2020 00:00
Search period end: 05 December 2020 00:00
Orbit: 467 x 1258 km, 28.8° (Epoch: 25 November)

Date Brightness Start Highest point End Pass type
(mag) Time Alt. Az. Time Alt. Az. Time Alt. Az.
28 Nov 9.6 04:18:15 10° SSW 04:18:21 10° SSW 04:18:21 10° SSW visible
29 Nov 9.2 02:22:38 10° SSE 02:24:08 11° SSE 02:25:36 10° SE visible
29 Nov 9.3 04:06:40 10° SW 04:08:17 15° SSW 04:08:17 15° SSW visible
30 Nov 9.1 02:09:36 10° S 02:13:04 13° SSE 02:16:05 11° SE visible
30 Nov 9.0 03:55:10 10° SW 03:58:13 21° SSW 03:58:13 21° SSW visible
01 Dec 9.1 01:57:24 10° S 02:01:59 16° SSE 02:05:58 11° ESE visible
01 Dec 8.6 03:43:43 10° SW 03:48:07 28° SSW 03:48:07 28° SSW visible
02 Dec 9.1 01:45:30 10° SSW 01:50:53 19° SSE 01:55:50 10° ESE visible
02 Dec 8.3 03:32:20 10° SW 03:37:58 35° S 03:37:58 35° S visible
03 Dec 9.0 01:33:47 10° SSW 01:39:45 22° SSE 01:45:27 10° ESE visible
03 Dec 8.0 03:20:59 10° SW 03:27:48 42° S 03:27:48 42° S visible
04 Dec 8.9 01:22:12 10° SSW 01:28:36 25° SSE 01:34:48 10° ESE visible
04 Dec 7.8 03:09:42 10° WSW 03:17:25 47° SSE 03:17:37 46° SSE visible
04 Dec 9.7 04:58:48 10° WSW 04:59:45 14° WSW 04:59:45 14° WSW visible
